Погода Красный Чикой

Погода Красный Чикой : погода сейчас, прогноз погоды и архив. Всё, что Вы хотите узнать о погоде Красный Чикой!

Хотите узнать прогноз погоды Красный Чикой? Тогда Вам сюда: Погода Красный Чикой

Поиск расширенной информации на нашем сайте:

Другие новости

Новости СМИ2

Главная страница сайта

Новости сайта

03.07.2017

Напоминаем, что на нашем специализированном сайте Метеоцентр.Азия вы можете получить высокодетализированные автоматические прогнозы погоды по пунктам России, СНГ и мира в авиационном формате (включающие направление и скорость ветра, видимость, явления погоды, количество и форму облачности, нижнюю и верхнюю границу облачности).

Рекомендуем: Янукович історія Вінниці www.imsu-vinnycja.com.

Погода Красный Чикой - сегодня

Время (UTC), дата Ветер
(°,м/с) 
Видим.   Явления Облачность Т
(°С)
Тd
(°С)
f(%) Тe
(°С)
Pmin
(гПа)
dP
(гПа)
Po
(мм)
O2
(г/м3)
Тmin Tmax R s Состояние
почвы
21 17.02.18 280 (З) 20000 м    4/0 верхняя 
[Ci fib]
-24.5 -26.6 83 -25  1040.9  0.5  703  313           
00 18.02.18 тихо ()   20000 м    4/0 верхняя 
[Ci fib]
-28 -30.6 78 -28  1043.4  0.9  704  318  -28      25  равномерный
сухой снег
100% 
03 18.02.18 тихо ()   20000 м    10/0 средняя, верхняя 
[Ac lent|Cs]
-17.6 -21.4 72 -18  1039.2  0.2  704  305  -28.1         
06 18.02.18 210 (ЮЗ) 20000 м    10/0 средняя, верхняя 
[Ac lent|Ci fib]
-10.9 -17.6 58 -14  1034.2  -2.1  702  296           
09 18.02.18 310 (СЗ) 20000 м    10/0 средняя, верхняя 
[Ac lent|Ci fib]
-11.8 -20.2 50 -15  1033.4  -1  702  297           
15 18.02.18 310 (СЗ) 20000 м    8/0 средняя, верхняя 
[Ac lent|Ci fib]
-19.8 -22.9 76 -23  1037.9  0.1  702  307           
18 18.02.18 300 (СЗ) 20000 м    6/0 средняя, верхняя 
[Ac lent|Ci fib]
-21.1 -23.5 81 -24  1037.9  -0.5  702  308           
21 18.02.18 020 (С) 20000 м    6/0 средняя, верхняя 
[Ac lent|Ci fib]
-24.5 -26.3 85 -25  1039  -0.3  702  312           
00 19.02.18 220 (ЮЗ) 20000 м    10/0 средняя, верхняя 
[Ac lent|Ci fib]
-23.7 -25.9 82 -24  1039.1  0.4  702  311  -24.9      24  равномерный
сухой снег
100% 
03 19.02.18 250 (З) 10 км  туман местами  10/0 средняя 
[Ac As]
-15.6 -19.5 72 -16  1036.4  0.6  703  302           
06 19.02.18 230 (ЮЗ) 10 км  осадки на расстоянии  10/4 1000 м кучево-дожд., средняя, верхняя 
[Cb cap|Ac lent|Ci fib]
-11.2 -15.2 72 -14  1033.3  -1.2  702  296           
09 19.02.18 290 (З) 10 км  осадки на расстоянии  9/4 1000 м кучево-дожд., верхняя 
[Cb cap|Ci fib]
-10.7 -19.4 49 -14  1032.4  -0.6  701  295           
15 19.02.18 220 (ЮЗ) 20000 м    ясно 
-20.8 -23.6 78 -21  1037.2  -0.3  702  308           
18 19.02.18 240 (ЮЗ) 20000 м    ясно 
-18.3 -21 79 -21  1035.5  -0.6  701  304           
21 19.02.18 260 (З) 20000 м    ясно 
-17.2 -20.4 76 -21  1034.7  -0.3  701  303           
00 20.02.18 240 (ЮЗ) 20000 м    4/0 верхняя 
[Ci fib]
-18.7 -21 82 -23  1036  0.6  701  305  -21.3      24  равномерный
сухой снег
100% 
03 20.02.18 230 (ЮЗ) 20000 м    6/0 верхняя 
[Ci fib]
-13.1 -18.6 63 -15  1034.3  0.5  702  298           
06 20.02.18 230 (ЮЗ) 20000 м    6/0 верхняя 
[Ci fib]
-8.7 -15.2 59 -12  1030.5  -1.9  700  293           
09 20.02.18 270 (З) 20000 м    8/0 верхняя 
[Ci fib]
-9.5 -13.1 75 -12  1029.7  -0.9  700  293           
15 20.02.18 240 (ЮЗ) 20000 м    ясно 
-14.6 -20.2 62 -17  1030.1  -0.8  699  299           
18 20.02.18 260 (З) 20000 м    4/0 верхняя 
[Ci fib]
-15 -20.4 63 -19  1028.1  -2  697  299           
21 20.02.18 220 (ЮЗ) 20000 м    8/0 средняя, верхняя 
[Ac lent|Ci fib]
-14.2 -20.2 60 -18  1026.8  -0.9  696  297           
00 21.02.18 260 (З) 20000 м    10/0 средняя, верхняя 
[Ac lent|Ci fib]
-15.4 -20.3 66 -18  1027  -0.2  696  299  -16.5      24  равномерный
сухой снег
100% 
03 21.02.18 180 (Ю) 20000 м    10/3 1000 м средняя, верхняя 
[Sc|Ac lent|Ci fib]
-11.9 -18.7 57 -12  1025.3  -0.3  696  295           
06 21.02.18 270 (З) 20000 м    10/5 1000 м кучево-дожд., средняя, верхняя 
[Cb cap|Ac lent|Ci fib]
-8.5 -17.9 47 -13  1022.2  -1.7  695  290           
Время (UTC), дата Ветер
(°,м/с) 
Видим.   Явления Облачность Т
(°С)
Тd
(°С)
f(%) Тe
(°С)
Pmin
(гПа)
dP
(гПа)
Po
(мм)
O2
(г/м3)
Тmin Tmax R s Состояние
почвы

Для получения пояснительной информации подведите курсор к названию столбца.

ПОГОДА Красный Чикой - архив

Всё, что Вы хотите узнать о погоде Красный Чикой - удобно и подробно!

Выберите нужную дату (начиная с 1 января 2015* года) и нажмите кнопку "Найти".
Будут отображены архивные сводки погоды по пункту Красный Чикой, начиная с указанной даты.


Отображать данные в формате CSV (для использования в таблицах Excel)


Внимание! Наш архив погоды предназначен исключительно для личного некоммерческого использования в познавательных целях. Если Вам необходимы официальные справки о состоянии погоды (для производственных, юридических, коммерческих и т.п. целей), обращайтесь в органы Росгидромета.

*Примечание: данная дата относится к архиву по метеостанциям СССР (Россия, СНГ, Балтия).
Архив по метеостанциям Зарубежной Европы и Азии (кроме Китая) хранится 10 дней, по другим регионам земного шара (Китай, Африка, Америка, Австралия, Океания) - 1 день.

Красный Чикой - район местоположения метеостанции


Название, широта, долгота, высота метеостанции:
Красный Чикой 50.4°ш. 108.8°д. 771 м над ур. моря [Российская Федерация]

Дополнительная информация

В oтличие oт бoльшинства пoгoдных сайтoв мы публикуем пoдрoбную метеoинфoрмацию в детальнoм прoфессиoнальнoм фoрмате.

Характеристики температуры и влажнoсти вoздуха измеряются на высoте 2 м в тени вдали oт зданий и деревьев.
Скoрoсть ветра измеряется на высoте 10 м (на урoвне рoста челoвека скoрoсть ветра ниже в 1.5-2 раза). Если метеoстанция нахoдится в гoрoде или в лесу, тo скoрoсть ветра занижена на 2-4 м/с пo сравнению с oткрытым местoм. Скoрoсть ветра над акватoриями крупных рек и oзёр, а также на вершинах хoлмoв на 2-5 м/с выше, чем в oбычных услoвиях.
Атмoсфернoе давление в разных тoчках местнoсти мoжет значительнo oтличаться oт давления на метеoстанции, в зависимoсти oт услoвий рельефа (при пoдъёме на 10 м давление пoнижается примернo на 1 мм рт.ст.).